星链-4567 (STARLINK-4567 )

导读 | 星芒AI

STARLINK-4567 是 SpaceX Starlink 项目中的一颗低轨通信卫星,旨在为全球用户提供高速互联网服务。该卫星采用先进的推进和通信技术,支持宽带接入,尤其服务于偏远地区。它运行在约 550 公里的轨道高度,与其他 Starlink 卫星协同工作,构建全球覆盖的卫星网络。STARLINK-4567 的部署有助于提升 Starlink 系统的稳定性和数据传输能力,推动全球互联网接入的普及与优化。

基本信息
目录编号:
53970
目录名称:
STARLINK-4567
国际标识:
2022-125G
轨道中心:
EARTH
卫星名称:
星链-4567
卫星全名:
星链-4567 (STARLINK-4567 )
卫星状态:
在轨 (已飞行1127 天)
发射日期:
2022-10-05 UTC
国别 :
美国 (US)
星等 :
--
轨道信息
数据来源 国际轨道数据
星历时间: 2025-11-04T21:47:01+0800
13小时前
查看轨道信息
半长轴: 6917.875km
偏心率: 0.0001203
轨道倾角: 53.218°
近地点辐角 86.870°
升交点赤经 60.825°
平近点角 273.243°
近地点: 538.907km
远地点: 540.573km
周期: 95.437分钟
每日圈数: 15.088418
详细信息
固有亮度:
5
最大亮度:
2.5
卫星平台:
Starlink v1.5
覆盖范围:
全球
运营商:
太空探索技术公司
运营商所在国:
美国
制造商(研发单位):
太空探索技术公司
制造商所在国:
美国
使用方式:
暂无
卫星简介
星链(Starlink)计划是由太空探索技术公司(SpaceX)提出的一个巨型低轨卫星互联网星座项目,计划在2019年至2024年间在太空搭建由约1.2万颗卫星组成的“星链”网络,其中1584颗将部署在地球上空550千米处的近地轨道,并从2020年开始工作。该卫星仍在工作。
2D轨道图
3D轨道图
轨道高度分析图
轨道倾角分析图
轨道综合分析图
查看轨道综合分析图